Starlink 5786

operational
NORAD ID: 56032 Int'l Des: 2023-042 Owner: SPXS Country: US Constellation: starlink
LEOCIRCULAR

Starlink 5786について

説明を読み込み中...

リアルタイム位置

3D地球を読み込み中...

次回通過

高度履歴

Altitude vs Time

uPlot chart will show altitude changes over time

軌道要素

1 56032U 23042AY 25351.72207866 .00000534 00000-0 54605-4 0 9997
2 56032 43.0027 128.1947 0001081 250.8084 109.2641 15.02543503150730
Epoch: Dec 17, 2025 • Age: 16 hours

現在のステータス

高度 558.5 km
速度 7.58 km/s
衛星直下点 12.68°N, 89.31°W
打ち上げ日 Mar 24, 2023
運用期間 2.7 years
タイプ internet

技術仕様

分類 Payload
質量 305.00 kg
乾燥質量 290.00 kg
総質量 305.00 kg
長さ 0.20 m
直径 2.80 m
スパン 9.00 m
形状 Box + pan
製造者 SPXS
バスタイプ Starlink
フェーズステータス In Orbit
所有者/国 SPXS/US

大規模コンステレーション

Loading constellations...